Other Public Products
Issued by NWS Charleston, SC

Current Version | Previous Version | Text Only | Print | Product List | Glossary Off
Versions: 1 2 3 4 5 6 7 8 9 10 11 12 13 14 15 16 17 18 19 20 21 22 23 24 25 26 27 28 29 30 31 32 33 34 35 36 37 38 39 40 41 42 43 44 45 46 47 48 49 50

000
FPUS82 KCHS 201512
OPUCHS

TEST...KCHS/KSAV Gateway Observations...TEST
National Weather Service Charleston SC
1000 AM EST SAT JAN 20 2018

NOTE: "fair" indicates few or no clouds below 12,000 feet with no
significant weather and/or obstructions to visibility.

SCZ050-WAZ558-NCZ071-TXZ119-213-PAZ071-DCZ001-FLZ074-172-MI076-
NYZ176-178-MAZ016-IL014-TNZ027-NJZ106-GAZ044-MD014-201600-

...Gateway Observations for Charleston International...

CITY           SKY/WX    TMP DP  RH WIND       PRES   REMARKS
Chas Airport   FAIR      50  22  33 VRB3      30.30R
Seattle        LGT RAIN  41  36  82 S12       30.02S
Charlotte      FAIR      39  21  48 NW5       30.21R WCI  36
Dallas DFW     PTSUNNY   58  52  80 S16       29.97S
Dallas Love    CLOUDY    58  52  80 S15G23    30.00R
Philladelphia  PTSUNNY   44  23  43 SW16      29.98R
Wash National  FAIR      38  22  52 S8        30.05R WCI  32
Baltimore      FAIR      46  14  27 SW8       30.01S
Miami          CLOUDY    71  60  68 NW6       30.26R
Detroit        PTSUNNY   36  26  67 SW15      29.94R WCI  27
Newark         PTSUNNY   45  23  42 SW12      29.91R
Laguardia      PTSUNNY   46  23  40 SW16G22   29.90R
J F K          PTSUNNY   43  27  53 SW9       29.93R
Boston Logan   PTSUNNY   41  23  48 SW17G26   29.69S
Ft. Lauderdale PTSUNNY   69  62  78 NE9       30.25R
Chicago O`Hare PTSUNNY   36  28  73 SW8       29.91R WCI  30
Chicago Midway PTSUNNY   36  29  75 S9        29.93R WCI  29
Houston Bush   FOG       57  57 100 E5        30.11R VSB<1/4
Houston Hobby  CLOUDY    56  56 100 SE6       30.10R FOG
Nashville      PTSUNNY   50  25  37 S10       30.24R
Atlanta        FAIR      44  23  43 W8        30.27R

$$

GAZ044-118-TXZ119-213-NCZ071-DCZ001-MDZ014-506-PAZ021-071-NJZ106-
NYZ176-178-MAZ106-OHZ011-021-055-MIZ076-KYZ091-ILZ014-INZ047-
MNZ060-ONZ431-201600-

...Gateway Observations for Savannah International...

CITY           SKY/WX    TMP DP  RH WIND       PRES   REMARKS
Savannah Arpt  FAIR      49  20  31 W3        30.33R
Atlanta        FAIR      44  23  43 W8        30.27R
Charlotte      FAIR      39  21  48 NW5       30.21R WCI  36
Dallas DFW     PTSUNNY   58  52  80 S16       29.97S
Houston Bush   FOG       57  57 100 E5        30.11R VSB<1/4
Wash National  FAIR      38  22  52 S8        30.05R WCI  32
Wash Dulles    FAIR      40  18  41 S6        30.03S WCI  36
Baltimore      FAIR      46  14  27 SW8       30.01S
Philadelphia   PTSUNNY   44  23  43 SW16      29.98R
Newark         PTSUNNY   45  23  42 SW12      29.91R
Laguardia      PTSUNNY   46  23  40 SW16G22   29.90R
J F K          PTSUNNY   43  27  53 SW9       29.93R
Boston         PTSUNNY   41  23  48 SW17G26   29.69S
Pittsburg      FAIR      39  24  55 SW14G25   30.03R WCI  31
Akron          FAIR      36  23  59 SW20      30.00R WCI  25
Cleveland      PTSUNNY   39  26  59 SW16G25   30.00R WCI  30
Cincinnati     PTSUNNY   39  24  55 SW15G22   30.10R WCI  31
Columbus       FAIR      35  26  68 SW10G17   30.08R WCI  27
Detroit        PTSUNNY   36  26  67 SW15      29.94R WCI  27
Chicago O`Hare PTSUNNY   36  28  73 SW8       29.91R WCI  30
Minneapolis    PTSUNNY   30  29  96 CALM      29.87R
Indianapolis   PTSUNNY   37  26  64 SW10      30.06R WCI  30
Toronto Canada PTSUNNY   36  27  69 SW13      29.82R WCI  27

$$




USA.gov is the U.S. government's official web portal to all federal, state and local government web resources and services.